Terminal Aerodrome Forecast
Issued by NWS

Home | Current Version | Previous Version | Graphics & Text | Print | Product List | Glossary On
Versions: 1 2 3 4 5 6 7 8 9 10 11 12 13 14 15 16 17 18 19 20 21
000
FTUS43 KICT 282300
TAFSLN
TAF
KSLN 282336Z 2900/2924 14007KT P6SM FEW080
     FM291600 17012KT P6SM FEW050=

USA.gov is the U.S. government's official web portal to all federal, state and local government web resources and services.